TIANWANG 1B (TW-1B)
1 40927U 15051C   19343.41723875  .00010473  00000-0  14274-3 0  9997
2 40927  97.1179  28.5513 0009261  96.4481  29.4868 15.57657372237021
TIANWANG 1A (TW-1A)
1 40928U 15051D   19343.37664699  .00002073  00000-0  51088-4 0  9993
2 40928  97.1302  10.7664 0011441 153.0351 332.3425 15.41635738235926
LAPAN A2
1 40931U 15052B   19342.12389082  .00000370  00000-0 -37558-4 0  9995
2 40931   6.0005 266.9022 0012502  74.0874 286.0779 14.76619897226789
LQSAT
1 40958U 15057A   19342.91017931 -.00000001 +00000-0 +75126-5 0  9992
2 40958 097.8802 047.2472 0019146 048.5628 311.7221 14.73099414224313
CHUBUSAT 2
1 41338U 16012B   19343.48522396  .00000255  00000-0  13085-4 0  9991
2 41338  31.0025 120.2397 0013767  23.9909 336.1365 15.00217571209032
CHUBUSAT 3
1 41339U 16012C   19343.43464649  .00000206  00000-0  92351-5 0  9993
2 41339  31.0106 118.4338 0013716  30.4248 329.7184 15.00387715209024
OUFTI-1
1 41458U 16025C   19343.20189181  .00001479  00000-0  77771-4 0  9990
2 41458  98.1008  78.8871 0166309 133.2698 228.2544 15.06292299198680
E-STAR-2
1 41459U 16025D   19343.39407870  .00001359  00000-0  72294-4 0  9991
2 41459  98.1008  78.6459 0167877 134.2863 227.2262 15.05899304198682
AAUSAT 4
1 41460U 16025E   19343.54274301  .00002642  00000-0  13317-3 0  9997
2 41460  98.0976  80.5084 0157199 124.8485 236.7585 15.07973693198863
NUSAT 1
1 41557U 16033B   19343.52489842  .00000983  00000-0  39093-4 0  9995
2 41557  97.4130  69.9973 0014837  48.5586 311.6925 15.27586004196629
BEESAT 4
1 41619U 16040W   19343.45977566  .00001151  00000-0  51045-4 0  9998
2 41619  97.3474  42.2751 0012575 127.8293 232.4084 15.23524551180319
PRATHAM
1 41783U 16059A   19342.90754795  .00000039  00000-0  16714-4 0  9994
2 41783  98.0461  38.4594 0033255 197.0769 162.9317 14.63024993170876
ALSAT 1N
1 41789U 16059G   19343.43149977  .00000055  00000-0  19387-4 0  9996
2 41789  98.0485  41.3505 0028254 183.6135 176.4871 14.64281745171073
NAYIF 1
1 42017U 17008BX  19343.43235571  .00001237  00000-0  50987-4 0  9996
2 42017  97.3850  48.5880 0004584 278.6974  81.3745 15.25961419156413
MAX VALIER SAT
1 42778U 17036P   19343.40910174  .00000771  00000-0  36409-4 0  9992
2 42778  97.3333  37.0560 0011549 341.6454  18.4364 15.22291103136660
